[Date Prev][Date Next][Thread Prev][Thread Next] - [Date Index][Thread Index][Author Index]
2 Line ISS Keps 6-22
- Subject: [sarex] 2 Line ISS Keps 6-22
- From: "Dave Larsen PhD" <doc@xxxxxxxxxxx>
- Date: Thu, 22 Jun 2006 13:29:44 -0700
ISS
1 25544U 98067A 06173.74530093 .00005085 00000-0 36378-4 0 1595
2 25544 051.6295 158.8512 0010083 355.3496 001.9348 15.75809987434035
----
Via the sarex mailing list at AMSAT.ORG courtesy of AMSAT-NA.
To unsubscribe, send "unsubscribe sarex" to Majordomo@amsat.org
AMSAT Home